User: anonymous   Login
Location: Unspecified
(0.0000°N, 0.0000°E)
Time: 22:59:42
(UTC+00:00)
Language:

NNS O-32 - Orbit

View from above orbital plane
View from above orbital plane
View from above satellite
View from above satellite

Ground track
Ground track

The orbit data is extracted from the following two-line orbital elements,

1 19071U 88033B   17267.63428698 -.00000007 +00000-0 -27693-4 0  9999
2 19071 090.3599 277.0389 0186962 233.0168 250.6102 13.27596809424574
Epoch (UTC): 24 September 2017 15:13:22
Eccentricity: 0.0186962
inclination: 90.3599°
perigee height: 1015 km
apogee height: 1296 km
right ascension of ascending node: 277.0389°
argument of perigee: 233.0168°
revolutions per day: 13.27596809
mean anomaly at epoch: 250.6102°
orbit number at epoch: 42457

The dashed part of the orbit path shows where the satellite is in the earth's shadow,  

DLR